Simultaneous Nadir Overpasses (SNOs) Predictions

Prediction of SNOs between GOES-17 and TERRA Satellite Orbit:

Table of predicted SNOs for the next 14.0 days since TLE Epoch: 4/27/2024
Index Date Time (GOES-17) GOES-17 Lat,Lon TERRA Lat,Lon Distance(km) Time Diff (sec)
1 04/28/2024 16:34:50 -0.00,-104.70 -0.80,-101.00 421.04 80
2 04/29/2024 04:54:57 0.00,-104.69 -0.22,-105.89 136.07 80
3 05/01/2024 04:35:04 0.00,-104.69 0.63,-101.74 335.03 80
4 05/01/2024 16:55:01 -0.00,-104.69 0.41,-106.59 215.59 80
5 05/03/2024 16:40:27 -0.00,-104.69 -0.45,-102.43 256.32 80
6 05/04/2024 05:00:34 0.00,-104.68 -0.55,-107.33 300.30 80
7 05/06/2024 04:40:39 -0.00,-104.68 0.30,-103.16 172.24 80
8 05/06/2024 17:00:35 0.00,-104.69 0.70,-108.02 378.18 80
9 05/08/2024 16:45:59 0.01,-104.69 -0.16,-103.85 94.80 80
10 05/09/2024 05:06:05 -0.01,-104.68 -0.88,-108.74 461.45 80
